User: anonymous   Login
Location: Burgwalden
(48.2830°N, 10.7576°E)
Time: 16:32:07
(UTC+00:00)
Language:

USA 281 - Orbit

View from above orbital plane
View from above orbital plane
View from above satellite
View from above satellite

Ground track
Ground track

The orbit data is extracted from the following two-line orbital elements,

1 43145U 18005A   24060.77536479 0.00000000  00000-0  00000-0 0    04
2 43145 106.0122  92.5621 0000831 101.8596 258.1404 13.48064340    05
Epoch (UTC): 29 February 2024 18:36:31
Eccentricity: 0.0000831
inclination: 106.0122°
perigee height: 1079 km
apogee height: 1080 km
right ascension of ascending node: 92.5621°
argument of perigee: 101.8596°
revolutions per day: 13.48064340
mean anomaly at epoch: 258.1404°
orbit number at epoch: 0

The dashed part of the orbit path shows where the satellite is in the earth's shadow,  

DLR